DW7831 Weather Reports


Display with metric or nautical units.
time (UTC)temp
F
wind
direction
speed
MPH
gust
MPH
rain 1hr
in
rain 24hr
in
rain mn
in
humidity
%
barometer
mb
20260901091523 65 199 2.0 0.0 0.00 0.00 0.07 100 1015.8
20260901090018 65 198 0.0 0.0 0.00 0.00 0.06 100 1015.8
20260901084513 65 198 0.0 0.0 0.00 0.00 0.06 100 1015.8
20260901083022 65 198 0.0 0.0 0.00 0.00 0.06 100 1015.8
20260901081510 65 198 0.0 0.0 0.00 0.00 0.06 100 1015.9
20260901080006 64 198 0.0 0.0 0.00 0.00 0.06 100 1016.0
20260901074502 64 198 0.0 0.0 0.00 0.00 0.06 100 1016.2
20260901073056 64 198 0.0 0.0 0.00 0.00 0.06 100 1016.4
20260901071559 64 198 0.0 0.0 0.00 0.00 0.05 100 1016.5
20260901070047 64 198 0.0 0.0 0.00 0.00 0.02 100 1016.6
20260901064543 64 198 0.0 0.0 0.00 0.00 0.02 100 1016.7
20260901063039 64 198 0.0 0.0 0.00 0.00 0.02 100 1016.7
20260901061535 64 198 0.0 0.0 0.00 0.00 0.01 100 1016.9
20260901060031 64 198 0.0 0.0 0.00 0.00 0.01 100 1017.1
20260901054526 64 198 0.0 0.0 0.00 0.00 0.01 100 1017.3
20260901053025 64 198 0.0 0.0 0.00 0.00 0.01 100 1017.4
20260901051521 64 198 0.0 0.0 0.00 0.00 0.01 100 1017.5
20260901050017 64 198 0.0 0.0 0.00 0.00 0.01 100 1017.4
20260901044512 64 198 0.0 0.0 0.00 0.00 0.01 100 1017.5
20260901043007 64 198 0.0 0.0 0.00 0.00 0.01 100 1017.4
20260901041503 64 198 0.0 0.0 0.00 0.00 0.01 100 1017.8
20260901040109 64 198 0.0 0.0 0.00 0.00 0.00 100 1017.8
20260901034602 64 198 0.0 0.0 0.00 0.00 0.04 100 1017.5
20260901033053 64 198 0.0 0.0 0.00 0.00 0.04 100 1017.6
20260901031552 64 198 0.0 0.0 0.00 0.00 0.04 100 1017.5
20260901030044 64 198 0.0 0.0 0.00 0.00 0.04 100 1017.8
20260901024540 64 198 0.0 0.0 0.00 0.00 0.04 100 1018.0
20260901023043 64 198 0.0 0.0 0.00 0.00 0.04 100 1018.3
20260901021535 64 198 0.0 0.0 0.00 0.00 0.04 100 1018.4
20260901020029 64 198 0.0 0.0 0.00 0.00 0.04 100 1018.3
20260901014524 64 198 0.0 0.0 0.00 0.00 0.03 100 1018.3
20260901013021 64 198 0.0 0.0 0.00 0.00 0.03 100 1018.5
20260901011516 64 198 0.0 0.0 0.00 0.00 0.03 100 1018.4
20260901010012 64 198 0.0 0.0 0.00 0.00 0.03 100 1018.2
20260901004508 64 198 0.0 0.0 0.00 0.00 0.03 100 1018.2
20260901003007 64 198 0.0 0.0 0.00 0.00 0.03 100 1018.1
20260901001504 64 198 0.0 0.0 0.00 0.00 0.02 100 1018.2
20260901000104 64 198 0.0 0.0 0.00 0.00 0.02 100 1018.3
20260831234555 64 198 0.0 0.0 0.00 0.00 0.01 100 1018.4
20260831233052 65 198 0.0 0.0 0.00 0.00 0.01 100 1018.4
20260831231549 65 198 0.0 0.0 0.00 0.00 0.01 100 1018.5
20260831230043 65 198 0.0 0.0 0.00 0.00 0.01 100 1018.7
20260831224539 65 198 0.0 0.0 0.00 0.00 0.01 100 1018.8
20260831223037 66 198 0.0 0.0 0.00 0.00 0.01 100 1018.9
20260831221532 66 198 0.0 0.0 0.00 0.00 0.01 100 1018.8
20260831220026 66 198 0.0 0.0 0.00 0.00 0.01 100 1018.8
20260831214525 66 198 0.0 0.0 0.00 0.00 0.01 100 1018.8
20260831213018 66 198 0.0 0.0 0.00 0.00 0.01 100 1018.8
20260831211525 67 198 0.0 0.0 0.00 0.00 0.01 3 1018.8
20260831210010 67 198 0.0 0.0 0.00 0.00 0.01 8 1018.9
20260831204510 67 198 1.0 0.0 0.00 0.00 0.01 14 1019.1
20260831203005 68 199 1.0 0.0 0.00 0.00 0.01 18 1018.9
20260831201557 68 200 0.0 0.0 0.00 0.00 0.01 17 1019.0
20260831200056 68 196 1.0 0.0 0.00 0.00 0.01 12 1019.1
20260831194608 68 196 0.0 0.0 0.00 0.00 0.01 10 1019.1
20260831193051 68 196 0.0 0.0 0.00 0.00 0.01 9 1019.2
20260831191550 69 196 0.0 0.0 0.00 0.00 0.01 14 1019.4
20260831190045 68 196 0.0 0.0 0.00 0.00 0.01 10 1019.6
20260831184538 67 196 0.0 0.0 0.00 0.00 0.01 100 1019.8
20260831183031 67 196 1.0 0.0 0.00 0.00 0.01 100 1019.8
20260831181528 66 196 0.0 0.0 0.00 0.00 0.01 100 1019.8
20260831180025 66 196 1.0 0.0 0.00 0.00 0.01 100 1020.2
20260831174520 66 194 0.0 0.0 0.00 0.00 0.01 100 1020.1
20260831173025 66 194 0.0 0.0 0.00 0.00 0.01 100 1020.3
20260831171514 67 194 0.0 0.0 0.00 0.00 0.00 5 1020.1
20260831170011 67 198 3.0 0.0 0.00 0.00 0.00 21 1020.5
20260831164506 69 205 4.0 0.0 0.00 0.00 0.00 31 1020.4
20260831163005 70 231 2.0 0.0 0.00 0.00 0.00 46 1020.5
20260831161558 71 169 1.0 0.0 0.00 0.00 0.00 49 1020.4
20260831160055 72 143 0.0 0.0 0.00 0.00 0.00 50 1020.4
20260831154550 72 140 0.0 0.0 0.00 0.00 0.00 50 1020.4
20260831153043 72 140 0.0 0.0 0.00 0.00 0.00 48 1020.5
20260831151539 71 138 0.0 0.0 0.00 0.00 0.00 46 1020.7
20260831150034 70 136 1.0 0.0 0.00 0.00 0.00 40 1020.6
20260831144530 68 124 1.0 0.0 0.00 0.00 0.00 29 1020.5
20260831143027 67 74 1.0 0.0 0.00 0.00 0.00 22 1020.8
20260831141523 66 81 0.0 0.0 0.00 0.00 0.00 10 1020.9
20260831140019 66 82 1.0 0.0 0.00 0.00 0.00 5 1020.9
20260831134515 65 106 1.0 0.0 0.00 0.00 0.00 100 1020.7
20260831133020 65 174 1.0 0.0 0.00 0.00 0.00 100 1020.7
20260831131530 64 224 0.0 0.0 0.00 0.00 0.00 100 1020.5
20260831130009 64 229 0.0 0.0 0.00 0.00 0.00 100 1020.5
20260831124505 63 230 0.0 0.0 0.00 0.00 0.00 100 1020.7
20260831123100 63 230 0.0 0.0 0.00 0.00 0.00 100 1020.8
20260831121553 62 230 0.0 0.0 0.00 0.00 0.00 100 1020.8
20260831120049 62 230 0.0 0.0 0.00 0.00 0.00 100 1020.7
20260831114544 61 230 0.0 0.0 0.00 0.00 0.00 100 1020.7
20260831113041 0 0.0 0.0 0.00 0.00 0.00 1020.4
20260831111536 0 0.0 0.0 0.00 0.00 0.00 1020.7
20260831110037 0 0.0 0.0 0.00 0.00 0.00 1020.4
20260831104536 0 0.0 0.0 0.00 0.00 0.00 1020.6
20260831103029 0 0.0 0.0 0.00 0.00 0.00 1020.6
20260831101520 61 230 0.0 0.0 0.00 0.00 0.00 100 1020.3
20260831100016 61 230 0.0 0.0 0.00 0.00 0.00 100 1020.3
20260831094512 61 230 0.0 0.0 0.00 0.00 0.00 100 1020.3
20260831093014 61 230 0.0 0.0 0.00 0.00 0.00 100 1020.3